Location: Culmain
(49.8952°N, 11.8980°E)
Time: 08:44:52
(UTC+00:00)

Daily predictions for brighter satellites

Satellite Brightness Start Highest point End
(mag) Time Altitude Azimuth Time Altitude Azimuth Time Altitude Azimuth
Starlink BJ 2.7 16:22:11 10° WSW 16:25:07 79° SSE 16:28:03 10° ENE
Starlink AV 2.7 16:22:25 10° WSW 16:25:20 79° SSE 16:28:16 10° ENE
Starlink BD 2.7 16:22:39 10° WSW 16:25:34 79° SSE 16:28:30 10° ENE
Cosmos 1607 4.0 16:19:42 10° SSW 16:25:45 68° SE 16:31:54 10° NE
Starlink BE 2.7 16:22:52 10° WSW 16:25:49 80° SSE 16:28:47 10° ENE
Starlink BM 2.7 16:23:06 10° WSW 16:26:01 80° SSE 16:28:58 10° ENE
Cosmos 1340 Rocket 3.1 16:22:24 10° N 16:26:12 43° ENE 16:30:00 10° SE
Starlink AX 2.7 16:23:19 10° WSW 16:26:15 80° SSE 16:29:11 10° ENE
Feng Yun 1-1 Rocket 4.4 16:20:39 10° SSE 16:26:22 77° ENE 16:32:16 10° NNW
Starlink BH 2.7 16:23:34 10° WSW 16:26:28 81° SSE 16:29:25 10° ENE
Starlink AZ 2.7 16:23:46 10° WSW 16:26:41 81° SSE 16:29:37 10° ENE
Starlink BG 2.7 16:24:00 10° WSW 16:26:56 81° SSE 16:29:52 10° ENE
Starlink BF 2.7 16:24:13 10° WSW 16:27:09 81° SSE 16:30:04 10° ENE
Starlink BL 2.7 16:24:24 10° WSW 16:27:21 82° SSE 16:30:19 10° ENE
Starlink AH 2.7 16:24:40 10° WSW 16:27:35 82° SSE 16:30:31 10° ENE
Starlink AC 2.7 16:24:53 10° WSW 16:27:48 82° SSE 16:30:45 10° ENE
Starlink X 2.7 16:25:07 10° WSW 16:28:02 82° SSE 16:30:58 10° ENE
Starlink AE 2.7 16:25:16 10° WSW 16:28:12 83° SSE 16:31:11 10° ENE
Starlink Z 2.7 16:25:33 10° WSW 16:28:28 83° SSE 16:31:25 10° ENE
Starlink AK 2.7 16:25:47 10° WSW 16:28:43 83° SSE 16:31:38 10° ENE
Starlink AL 2.7 16:26:01 10° WSW 16:28:57 83° SSE 16:31:53 10° ENE
Starlink AD 2.7 16:26:10 10° WSW 16:29:06 84° SSE 16:32:02 10° ENE
SJ 16-02 3.2 16:25:31 10° WSW 16:29:20 28° WNW 16:33:11 10° N
Starlink Y 2.7 16:26:40 10° WSW 16:29:35 84° SSE 16:32:32 10° ENE
Starlink AG 2.7 16:26:54 10° WSW 16:29:49 84° SSE 16:32:46 10° ENE
Starlink W 2.7 16:27:05 10° WSW 16:30:02 85° SSE 16:33:00 10° ENE
Starlink AJ 2.7 16:27:20 10° WSW 16:30:16 85° SSE 16:33:13 10° ENE
SL-14 R/B 3.5 16:26:26 10° S 16:30:18 51° E 16:34:10 10° NNE
Starlink AM 2.7 16:27:50 10° WSW 16:30:45 85° SSE 16:33:42 10° ENE
Starlink AP 2.7 16:28:00 10° WSW 16:30:56 86° SSE 16:33:53 10° ENE
Starlink AA 2.7 16:28:13 10° WSW 16:31:09 86° SSE 16:34:05 10° ENE
Starlink AF 2.7 16:28:29 10° WSW 16:31:25 86° SSE 16:34:20 10° ENE
Meteor 2-5 Rocket 3.8 16:26:02 10° SSW 16:31:34 84° W 16:37:14 10° N
Starlink AB 2.7 16:28:41 10° WSW 16:31:38 86° SSE 16:34:33 10° ENE
Starlink AN 2.7 16:28:53 10° WSW 16:31:49 87° SSE 16:34:44 10° ENE
USA 267 3.3 16:25:39 10° ENE 16:32:14 88° SSE 16:38:48 10° WSW
Cosmos 1980 3.8 16:27:26 10° NNW 16:33:05 60° ENE 16:38:41 10° SE
Timation 2 Rocket 4.0 16:27:20 10° SSW 16:33:22 67° ESE 16:39:42 10° NE
Cosmos 2297 Rocket 3.4 16:29:08 10° SSE 16:33:27 23° ESE 16:37:48 10° NE
Alouette 2 Rocket 4.4 16:29:23 10° NNW 16:34:05 87° WSW 16:41:22 10° S
ATLAS 5 CENTAUR R/B 3.7 16:32:57 10° NNW 16:35:51 25° NNE 16:42:24 10° E
Cosmos 2219 Rocket 3.0 16:35:22 10° NW 16:40:57 58° WSW 16:46:29 10° S
H-2A R/B 3.1 16:38:04 10° S 16:41:55 70° W 16:45:49 10° NNW
Cosmos 494 Rocket 3.9 16:37:56 10° NNW 16:43:05 77° ENE 16:48:12 10° SSE
Cosmos 2227 Rocket 3.2 16:41:18 10° SSE 16:45:52 26° ESE 16:50:27 10° NE
Starlink T 2.8 16:44:12 10° WSW 16:47:12 78° NNW 16:49:36 15° ENE
Starlink N 2.8 16:45:40 10° WSW 16:48:40 77° NNW 16:51:01 15° ENE
SKYMED 2 4.3 16:45:05 10° NNE 16:49:00 32° E 16:52:54 10° SSE
Starlink Q 2.8 16:47:24 10° WSW 16:50:25 75° NNW 16:52:42 16° ENE
NOSS 2-1 (C) 4.3 16:45:32 10° NW 16:50:28 64° NE 16:57:23 10° SE
COSMOS 2428 3.8 16:46:03 10° NW 16:51:36 51° WSW 16:57:07 10° S
Ariane Rocket 4.3 16:48:23 10° E 16:51:54 19° NE 16:55:25 10° NNE
Starlink P 2.8 16:48:58 10° WSW 16:51:58 74° NNW 16:54:12 17° ENE
Starlink U 2.8 16:50:30 10° WSW 16:53:31 72° NNW 16:55:41 17° ENE
NOSS 2-1 (D) 4.3 16:49:20 10° NW 16:54:19 67° NE 17:01:18 10° SE
PSLV R/B 4.2 16:50:22 10° N 16:54:26 70° WNW 16:58:29 10° SSW
Meteor 2-1 Rocket 4.1 16:49:26 10° N 16:54:57 71° ENE 17:00:29 10° SSE
Starlink B 2.8 16:52:05 10° WSW 16:55:05 71° NNW 16:57:12 18° ENE
Starlink AR 2.5 16:53:06 10° W 16:55:38 62° NNW 16:57:13 20° ENE
Cosmos 1812 Rocket 3.6 16:54:27 10° N 16:58:56 88° W 17:03:25 10° S
Cosmos 1939 Rocket 3.7 16:56:29 10° ESE 16:59:48 27° ENE 17:03:10 10° N
Meteor 2-10 Rocket 4.0 16:55:31 10° N 17:00:33 39° ENE 17:05:23 10° SE
Starlink D 2.9 17:00:17 10° W 17:03:18 65° NNW 17:05:07 21° ENE
Starlink S 2.9 17:01:56 10° W 17:04:57 64° NNW 17:06:42 22° ENE
Cosmos-2242 3.2 17:02:10 10° N 17:06:22 46° ENE 17:10:30 10° SSE
Starlink C 3.0 17:03:31 10° W 17:06:33 63° NNW 17:08:14 23° ENE
Starlink E 3.0 17:05:11 10° W 17:08:13 62° NNW 17:09:51 24° ENE
USA 234 4.4 17:02:16 10° SSE 17:08:30 46° SW 17:14:46 10° WNW
YAOGAN 1 2.8 17:05:38 10° SE 17:09:47 47° ENE 17:13:57 10° N
Starlink J 3.0 17:06:51 10° W 17:09:52 61° NNW 17:11:26 25° ENE
Cosmos 2218 Rocket 4.5 17:05:44 10° SSE 17:11:31 39° E 17:17:21 10° NNE
Starlink V 3.0 17:08:29 10° W 17:11:31 60° NNW 17:13:01 26° ENE
H-2A R/B 3.5 17:12:07 17° NE 17:12:07 17° NE 17:15:11 10° NNE
Cosmos 44 4.4 17:09:04 10° SSE 17:12:32 21° ESE 17:13:44 19° E
Starlink H 3.0 17:10:11 10° W 17:13:12 60° NNW 17:14:38 27° ENE
Starlink F 3.1 17:11:52 10° W 17:14:53 59° NNW 17:16:15 28° NE
Cosmos 2251 Rocket 4.0 17:10:14 10° NNW 17:15:11 38° ENE 17:20:09 10° SE
Starlink G 3.1 17:13:32 10° W 17:16:34 58° NNW 17:17:52 29° NE
Starlink L 3.1 17:15:12 10° W 17:18:14 57° NNW 17:19:28 30° NE
Starlink A 3.1 17:16:54 10° W 17:19:55 56° NNW 17:21:05 31° NE
Cosmos 2154 Rocket 4.2 17:13:43 10° SSW 17:20:00 76° W 17:26:17 10° N
CSL-04 Debris 4.1 17:14:45 10° SSE 17:20:03 61° ENE 17:25:23 10° N
Cosmos 1242 Rocket 4.0 17:17:58 10° SW 17:21:15 36° WNW 17:24:36 10° N
Starlink R 3.1 17:18:35 10° W 17:21:37 56° NNW 17:22:44 33° NE
Starlink K 3.1 17:20:16 10° W 17:23:17 55° NNW 17:24:20 34° NE
ATLAS CENTAUR R/B 2.1 17:20:22 10° NNW 17:24:08 31° NE 17:25:05 28° ENE
USA 32 3.9 17:19:31 10° S 17:24:44 78° E 17:29:59 10° N
Starlink M 3.2 17:21:56 10° W 17:24:57 54° NNW 17:25:56 35° NE
ISS -2.2 17:25:14 10° SSW 17:27:54 22° SE 17:28:18 21° SE
Cosmos 1602 Rocket 4.4 17:23:45 10° SSW 17:28:02 52° WNW 17:32:18 10° N
CZ-4 R/B 1.4 17:27:01 10° SSE 17:31:05 87° W 17:35:15 10° NNW
Cosmos 2237 Rocket 2.9 17:29:05 10° NW 17:34:36 57° WSW 17:40:05 10° S
ATLAS CENTAUR R/B 4.3 17:29:50 10° W 17:36:02 67° NNW 17:48:22 20° ENE
YAOGAN 6 3.9 17:33:39 10° S 17:37:11 43° W 17:40:43 10° NNW
COSMO-SKYMED 1 2.5 17:32:54 10° NNE 17:37:16 88° WNW 17:41:37 10° SSW
Cosmos 1125 Rocket 4.3 17:33:13 10° SW 17:38:17 51° WNW 17:43:25 10° NNE
CZ-2D R/B 3.1 17:35:41 10° SSE 17:39:28 67° ENE 17:43:19 10° N
Cosmos 1953 Rocket 3.6 17:35:51 10° S 17:40:16 60° E 17:44:25 12° NNE
Cosmos 1626 4.2 17:37:41 10° SW 17:40:56 28° WNW 17:44:13 10° N
CZ-2C R/B 4.3 17:42:25 24° NE 17:42:25 24° NE 17:46:06 10° N
Cosmos 1842 Rocket 4.3 17:38:08 10° N 17:41:42 33° NE 17:41:42 33° NE
ADEOS Rocket 3.6 17:37:28 10° NNE 17:43:36 41° E 17:50:19 10° SSE
Cosmos 1758 Rocket 3.6 17:40:52 10° SSW 17:45:10 76° W 17:49:31 10° N
Cosmos 2366 rocket 4.0 17:39:23 10° S 17:45:29 62° E 17:51:41 10° NNE
CSL-04 Rocket 3.7 17:40:24 10° SSE 17:45:55 88° WSW 17:51:31 10° NNW
Cosmos 1932 4.5 17:40:10 10° SSW 17:46:28 66° ESE 17:50:20 25° NE
Meteor 1-27 4.4 17:43:18 10° N 17:48:38 45° ENE 17:53:15 14° SE
Cosmos 1455 2.2 17:44:56 10° NNW 17:48:46 83° W 17:52:34 10° S
Cosmos 1356 Rocket 3.5 17:45:50 10° N 17:49:34 47° ENE 17:49:34 47° ENE
ATLAS 5 CENTAUR R/B 3.6 17:47:39 10° WNW 17:51:18 22° NNW 17:53:54 16° NNE
Meteor 1-11 4.4 17:48:14 10° SSE 17:53:32 45° E 17:56:19 26° NE
ERBS 2.1 17:52:18 10° SW 17:55:37 87° SSE 17:55:37 87° SSE
SL-16 R/B 2.1 17:51:17 10° NNW 17:57:01 89° ENE 18:02:41 10° SSE
Starlink AS 3.8 17:55:34 10° W 17:57:52 38° NW 17:57:52 38° NW
Starlink AQ 3.8 17:55:41 10° W 17:58:02 39° NW 17:58:02 39° NW
Starlink BA 3.8 17:55:48 10° W 17:58:05 38° NW 17:58:05 38° NW
Starlink AU 3.9 17:56:01 10° W 17:58:17 38° NW 17:58:17 38° NW
Starlink AT 3.9 17:56:16 10° W 17:58:32 38° NW 17:58:32 38° NW
Starlink BB 3.9 17:56:28 10° W 17:58:44 38° NW 17:58:44 38° NW
Starlink BC 3.9 17:56:43 10° W 17:58:58 37° NW 17:58:58 37° NW
Starlink BK 3.9 17:56:55 10° W 17:59:10 37° NW 17:59:10 37° NW
Starlink AY 3.9 17:57:10 10° W 17:59:24 37° NW 17:59:24 37° NW
Starlink AW 3.9 17:57:23 10° W 17:59:36 37° NW 17:59:36 37° NW
Starlink BJ 3.9 17:57:36 10° W 17:59:49 37° NW 17:59:49 37° NW
Starlink AV 4.0 17:57:49 10° W 18:00:01 36° NW 18:00:01 36° NW
Starlink BD 4.0 17:58:04 10° WNW 18:00:15 36° NW 18:00:15 36° NW
Starlink BE 4.0 17:58:17 10° W 18:00:31 37° NW 18:00:31 37° NW
Starlink BM 4.0 17:58:30 10° WNW 18:00:41 36° NW 18:00:41 36° NW
Starlink AX 4.0 17:58:44 10° WNW 18:00:54 36° NW 18:00:54 36° NW
Starlink BH 4.0 17:58:58 10° WNW 18:01:08 36° NW 18:01:08 36° NW
Starlink AZ 4.0 17:59:10 10° WNW 18:01:19 35° NW 18:01:19 35° NW
Starlink BG 4.0 17:59:25 10° WNW 18:01:34 35° NW 18:01:34 35° NW
Starlink BF 4.1 17:59:38 10° WNW 18:01:46 35° NW 18:01:46 35° NW
Starlink BL 4.0 17:59:50 10° WNW 18:02:00 36° NW 18:02:00 36° NW
Cosmos 724 4.4 17:56:53 10° SW 18:02:51 76° NW 18:06:12 27° NNE
Starlink AH 4.1 18:00:05 10° WNW 18:02:12 35° NW 18:02:12 35° NW
Starlink AC 4.1 18:00:18 10° WNW 18:02:24 34° NW 18:02:24 34° NW
Starlink X 4.1 18:00:32 10° WNW 18:02:37 34° NW 18:02:37 34° NW
Starlink AE 4.1 18:00:40 10° WNW 18:02:49 35° NW 18:02:49 35° NW
Starlink Z 4.1 18:00:58 10° WNW 18:03:03 34° NW 18:03:03 34° NW
Starlink AK 4.1 18:01:12 10° WNW 18:03:16 34° NW 18:03:16 34° NW
Starlink AL 4.2 18:01:27 10° WNW 18:03:30 34° NW 18:03:30 34° NW
Starlink AD 4.2 18:01:36 10° WNW 18:03:39 34° NW 18:03:39 34° NW
Starlink Y 4.2 18:02:06 10° WNW 18:04:07 33° NW 18:04:07 33° NW
Cosmos 2219 3.6 17:59:23 10° SW 18:04:57 61° WNW 18:09:13 18° NNE
Starlink AG 4.2 18:02:19 10° WNW 18:04:20 33° NW 18:04:20 33° NW
Cosmos 1328 3.7 18:01:10 10° S 18:05:11 86° E 18:06:15 48° NNE
Starlink W 4.2 18:02:31 10° WNW 18:04:35 34° NW 18:04:35 34° NW
Starlink AJ 4.2 18:02:46 10° WNW 18:04:46 33° NW 18:04:46 33° NW
Starlink AM 4.3 18:03:16 10° WNW 18:05:15 32° NW 18:05:15 32° NW
Meteor 2-12 Rocket 4.5 18:00:22 10° SSE 18:06:09 50° E 18:11:59 10° NNE
Starlink AP 4.3 18:03:26 10° WNW 18:05:25 32° NW 18:05:25 32° NW
Starlink AA 4.3 18:03:39 10° WNW 18:05:37 32° NW 18:05:37 32° NW
IRS-1A Rocket 4.2 18:00:59 10° SSE 18:06:41 66° ENE 18:12:18 10° N
Starlink AF 4.3 18:03:56 10° WNW 18:05:53 32° NW 18:05:53 32° NW
Starlink AB 4.3 18:04:08 10° WNW 18:06:04 32° NW 18:06:04 32° NW
Starlink AN 4.3 18:04:19 10° WNW 18:06:16 32° NW 18:06:16 32° NW
Cosmos 2082 3.6 18:01:39 10° SSW 18:07:11 64° ESE 18:08:58 42° NE
Cosmos 1603 4.1 18:03:52 10° NNW 18:09:08 40° NE 18:09:08 40° NE
Cosmos 1727 Rocket 3.8 18:03:13 10° N 18:09:28 83° E 18:15:38 10° S
Cosmos 1825 Rocket 4.4 18:05:47 10° SSW 18:10:00 49° WNW 18:14:14 10° N
USA 267 3.7 18:12:10 32° NE 18:15:02 53° NNW 18:21:20 10° W
Cosmos 2297 Rocket 2.4 18:11:21 10° SW 18:16:59 69° WNW 18:20:18 26° NNE
MOS 1 4.2 18:15:28 37° SE 18:17:40 64° ENE 18:23:18 10° N
SL-8 Rocket 4.4 18:15:19 10° SSW 18:21:34 63° WNW 18:27:49 10° N
Cosmos 2227 Rocket 2.6 18:23:55 10° SW 18:29:31 61° WNW 18:32:19 30° NNE
Ariane Rocket 3.0 18:25:13 10° SSE 18:30:17 79° WSW 18:35:24 10° NNW
SJ-11-01 4.3 18:37:22 79° WNW 18:37:22 79° WNW 18:42:00 10° NNW
ARGOS 3.7 18:40:06 44° N 18:40:06 44° N 18:43:49 10° N
SL-8 R/B 4.4 18:34:44 10° WSW 18:38:29 46° SSW 18:38:29 46° SSW
Cosmos 1943 3.9 18:38:51 10° NNW 18:42:48 41° N 18:42:48 41° N
H-2A R/B 2.9 18:52:43 39° NNW 18:52:43 39° NNW 18:55:55 10° NNW
Cosmos 44 4.1 18:48:53 10° SW 18:52:11 44° WSW 18:52:11 44° WSW
Cosmos 1821 Rocket 4.2 18:47:53 10° S 19:01:34 - N 18:52:57 59° S
ATLAS CENTAUR R/B 3.4 18:59:20 10° NW 19:01:19 25° WNW 19:01:19 25° WNW
ISS -0.4 19:00:58 10° WSW 19:01:14 12° WSW 19:01:14 12° WSW
CZ-2C R/B 4.5 19:23:28 34° NNW 19:23:28 34° NNW 19:26:39 10° NNW
ADEOS Rocket 4.1 19:23:03 10° N 19:29:11 48° WNW 19:35:57 10° SW
ATLAS 5 CENTAUR R/B 4.4 19:34:06 10° NW 19:35:26 15° NNW 19:35:26 15° NNW
USA 267 4.3 19:59:31 38° NW 19:59:31 38° NW 20:03:45 10° WNW
Cosmos 2297 Rocket 4.4 19:58:13 10° W 20:02:08 19° NW 20:02:09 19° NW
